Tracking 18851 objects as of 25-Nov-2017
HD Live streaming from Space Station
objects crossing your sky now

APRIZESAT 8

Track APRIZESAT 8 now!
10-day predictions
APRIZESAT 8 is classified as:


NORAD ID: 39425
Int'l Code: 2013-066K
Perigee: 595.8 km
Apogee: 670.8 km
Inclination: 97.6 °
Period: 97.2 minutes
Semi major axis: 7004 km
RCS: Unknown
Launch date: November 21, 2013
Source: United States (US)
Launch site: Orenburg, Russia (OREN)
aabbcc
Your satellite tracking list
Your tracking list is empty




NASA's NSSDC Master Catalog

Two Line Element Set (TLE):
1 39425U 13066K   17328.61462090 +.00000106 +00000-0 +19760-4 0  9992
2 39425 097.6088 004.9079 0053525 100.9638 259.7603 14.80994081216374
Source of the keplerian elements: AFSPC